Total_Precipitation_Accumulation
0.01 0.01 0.02 0.00 0.00 0.00 0.00 0.01 0.00 0.00 0.00 0.00 0.00 0.00 0.00 0.00 0.00 0.00 0.00 0.00 0.00 0.00 0.01 0.01 0.00 0.00 0.00 0.00 0.00 0.00 0.01 0.01 0.01 0.01 0.01 0.00 0.00 0.00 0.00 0.00 0.00 0.00 0.00
0.20 0.30 0.32 0.30 0.11 0.02 0.17 0.14 0.10 0.08 0.06 0.02 0.00 0.00 0.00 0.00 0.00 0.00 0.00 0.00 0.00 0.00 0.00 0.00 0.00 0.00 0.00 0.00 0.00 0.00 0.00 0.01 0.01 0.01 0.01 0.01 0.00 0.00 0.00 0.00 0.01 0.01 0.01
0.33 0.36 0.29 0.32 0.27 0.25 0.16 0.31 0.28 0.30 0.21 0.05 0.01 0.01 0.00 0.00 0.00 0.01 0.00 0.00 0.00 0.00 0.00 0.00 0.00 0.00 0.00 0.00 0.00 0.00 0.00 0.00 0.01 0.01 0.02 0.01 0.00 0.00 0.00 0.01 0.01 0.01 0.01
0.29 0.24 0.17 0.14 0.20 0.41 0.46 0.26 0.33 0.31 0.19 0.15 0.08 0.02 0.00 0.00 0.01 0.01 0.00 0.00 0.00 0.00 0.00 0.00 0.00 0.00 0.00 0.00 0.00 0.00 0.00 0.01 0.01 0.01 0.02 0.01 0.00 0.00 0.01 0.01 0.01 0.01 0.01
0.04 0.11 0.20 0.19 0.26 0.41 0.41 0.37 0.27 0.27 0.25 0.18 0.17 0.11 0.03 0.00 0.03 0.02 0.01 0.00 0.00 0.00 0.00 0.00 0.00 0.00 0.00 0.00 0.00 0.00 0.01 0.01 0.01 0.01 0.02 0.01 0.01 0.01 0.01 0.01 0.01 0.01 0.01
0.00 0.01 0.03 0.09 0.16 0.22 0.25 0.25 0.26 0.18 0.12 0.19 0.20 0.20 0.14 0.06 0.03 0.01 0.02 0.01 0.00 0.00 0.00 0.00 0.00 0.00 0.00 0.00 0.01 0.00 0.01 0.01 0.01 0.01 0.02 0.02 0.01 0.01 0.01 0.01 0.01 0.01 0.01
0.00 0.00 0.01 0.03 0.07 0.10 0.12 0.17 0.25 0.25 0.17 0.15 0.21 0.23 0.13 0.09 0.03 0.03 0.02 0.02 0.01 0.00 0.00 0.00 0.00 0.00 0.00 0.00 0.00 0.01 0.01 0.01 0.01 0.01 0.02 0.02 0.01 0.02 0.01 0.01 0.01 0.01 0.02
0.00 0.00 0.00 0.02 0.04 0.06 0.11 0.15 0.21 0.36 0.37 0.34 0.32 0.43 0.49 0.45 0.31 0.18 0.09 0.05 0.02 0.01 0.00 0.00 0.00 0.00 0.00 0.00 0.00 0.00 0.01 0.01 0.01 0.01 0.02 0.02 0.01 0.01 0.02 0.01 0.01 0.01 0.02
0.00 0.00 0.00 0.00 0.02 0.10 0.18 0.28 0.37 0.46 0.52 0.62 0.52 0.41 0.38 0.33 0.27 0.24 0.22 0.15 0.09 0.06 0.02 0.00 0.00 0.00 0.00 0.00 0.00 0.00 0.01 0.01 0.01 0.01 0.02 0.02 0.01 0.02 0.02 0.01 0.01 0.01 0.01
0.00 0.00 0.00 0.00 0.00 0.02 0.07 0.20 0.36 0.62 0.88 1.15 1.26 1.30 1.26 1.03 0.80 0.68 0.61 0.65 0.65 0.45 0.31 0.22 0.06 0.00 0.00 0.00 0.00 0.00 0.01 0.00 0.01 0.02 0.03 0.03 0.02 0.02 0.02 0.01 0.01 0.01 0.01
0.00 0.00 0.00 0.00 0.00 0.00 0.00 0.06 0.13 0.18 0.29 0.45 0.62 0.78 1.12 1.39 1.26 0.88 0.63 0.69 0.83 0.76 0.43 0.27 0.21 0.06 0.01 0.01 0.00 0.00 0.00 0.00 0.00 0.01 0.03 0.04 0.02 0.03 0.02 0.01 0.01 0.01 0.00
0.00 0.00 0.02 0.02 0.02 0.01 0.01 0.01 0.02 0.06 0.14 0.28 0.37 0.43 0.53 0.56 0.60 0.72 0.63 0.47 0.43 0.45 0.45 0.21 0.10 0.07 0.03 0.00 0.01 0.01 0.00 0.00 0.02 0.02 0.01 0.02 0.03 0.03 0.03 0.02 0.00 0.01 0.01
0.00 0.00 0.01 0.01 0.03 0.03 0.02 0.02 0.02 0.04 0.10 0.18 0.22 0.30 0.37 0.45 0.44 0.49 0.56 0.56 0.48 0.47 0.40 0.19 0.05 0.02 0.02 0.00 0.00 0.01 0.00 0.00 0.00 0.02 0.02 0.02 0.01 0.02 0.03 0.02 0.00 0.02 0.02
0.00 0.00 0.02 0.03 0.04 0.05 0.07 0.09 0.11 0.11 0.13 0.16 0.22 0.26 0.33 0.31 0.35 0.43 0.48 0.51 0.48 0.39 0.38 0.32 0.16 0.05 0.03 0.02 0.02 0.03 0.01 0.01 0.01 0.02 0.02 0.02 0.02 0.01 0.02 0.01 0.01 0.03 0.03
0.01 0.03 0.05 0.03 0.02 0.02 0.05 0.05 0.06 0.09 0.12 0.13 0.15 0.23 0.44 0.58 0.56 0.49 0.51 0.58 0.42 0.38 0.30 0.25 0.15 0.09 0.04 0.05 0.08 0.10 0.05 0.05 0.04 0.04 0.04 0.03 0.02 0.02 0.02 0.01 0.02 0.02 0.02
0.06 0.04 0.01 0.01 0.01 0.01 0.01 0.01 0.00 0.01 0.03 0.08 0.14 0.19 0.32 0.52 0.76 0.86 0.83 0.84 0.72 0.50 0.34 0.23 0.13 0.11 0.06 0.04 0.11 0.16 0.11 0.13 0.06 0.06 0.06 0.05 0.04 0.03 0.03 0.02 0.01 0.01 0.01
0.01 0.00 0.00 0.00 0.00 0.00 0.00 0.00 0.00 0.00 0.01 0.07 0.15 0.25 0.20 0.22 0.39 0.62 0.70 0.82 0.97 0.88 0.55 0.41 0.38 0.22 0.23 0.09 0.18 0.30 0.18 0.15 0.10 0.08 0.06 0.05 0.06 0.06 0.04 0.02 0.01 0.01 0.01
0.00 0.00 0.00 0.00 0.00 0.00 0.00 0.00 0.00 0.00 0.00 0.01 0.07 0.16 0.21 0.22 0.18 0.28 0.44 0.44 0.48 0.68 0.77 0.51 0.62 0.76 0.58 0.31 0.20 0.32 0.28 0.26 0.16 0.16 0.08 0.04 0.04 0.06 0.04 0.05 0.03 0.02 0.01
0.00 0.00 0.00 0.00 0.00 0.00 0.00 0.00 0.00 0.00 0.00 0.00 0.01 0.09 0.16 0.24 0.27 0.19 0.25 0.35 0.38 0.50 0.57 0.50 0.66 0.99 0.85 0.67 0.53 0.56 0.42 0.32 0.18 0.21 0.14 0.07 0.05 0.05 0.03 0.03 0.03 0.03 0.01
0.00 0.00 0.00 0.00 0.00 0.00 0.00 0.00 0.00 0.00 0.00 0.00 0.00 0.01 0.07 0.20 0.30 0.40 0.36 0.47 0.51 0.53 0.47 0.44 0.56 0.91 0.88 0.86 0.69 0.75 0.90 0.75 0.46 0.33 0.25 0.14 0.08 0.06 0.03 0.02 0.02 0.01 0.01
0.00 0.00 0.00 0.00 0.00 0.00 0.00 0.00 0.00 0.00 0.00 0.00 0.00 0.00 0.00 0.04 0.15 0.26 0.32 0.42 0.47 0.47 0.41 0.36 0.42 0.63 0.72 0.68 0.78 0.69 0.53 0.57 0.51 0.40 0.32 0.24 0.13 0.10 0.06 0.02 0.02 0.01 0.00
0.00 0.00 0.00 0.00 0.00 0.00 0.00 0.00 0.00 0.00 0.00 0.00 0.00 0.00 0.00 0.00 0.01 0.10 0.23 0.29 0.35 0.43 0.34 0.31 0.31 0.37 0.43 0.35 0.32 0.36 0.45 0.54 0.80 0.78 0.38 0.35 0.12 0.05 0.08 0.03 0.01 0.00 0.00
0.00 0.00 0.00 0.00 0.00 0.00 0.01 0.01 0.00 0.00 0.00 0.00 0.00 0.00 0.00 0.00 0.00 0.00 0.05 0.13 0.13 0.19 0.21 0.21 0.28 0.31 0.31 0.33 0.27 0.31 0.28 0.20 0.23 0.45 0.33 0.37 0.26 0.10 0.07 0.05 0.02 0.01 0.01
0.00 0.00 0.00 0.00 0.00 0.00 0.01 0.01 0.01 0.00 0.00 0.00 0.00 0.00 0.00 0.00 0.00 0.00 0.00 0.02 0.04 0.06 0.08 0.09 0.08 0.15 0.21 0.25 0.30 0.26 0.17 0.16 0.20 0.23 0.17 0.29 0.31 0.18 0.10 0.05 0.05 0.02 0.01
0.00 0.00 0.00 0.00 0.00 0.00 0.00 0.01 0.01 0.00 0.00 0.00 0.00 0.00 0.00 0.00 0.00 0.00 0.00 0.00 0.01 0.03 0.06 0.09 0.10 0.14 0.31 0.41 0.38 0.49 0.65 0.88 0.88 0.83 0.74 0.60 0.58 0.42 0.35 0.21 0.13 0.06 0.03
0.00 0.00 0.00 0.00 0.00 0.00 0.00 0.00 0.00 0.00 0.00 0.00 0.00 0.00 0.00 0.01 0.00 0.00 0.00 0.00 0.00 0.00 0.01 0.04 0.09 0.08 0.16 0.36 0.57 0.41 0.46 0.45 0.43 0.67 0.78 0.43 0.43 0.34 0.60 0.56 0.25 0.11 0.05